Domov               UVHVVR             MKGP            O straneh              
ZDRAVSTVENO VARSTVO RASTLIN
  MREŽA AGROMET. POSTAJ
 ► PROGNOSTIČNA OBVESTILA
AGROMETEOROLOŠKI PODATKI -
ARSO
OBVLADOVANJE TVEGANJ ZARADI
NEUGODNIH VREMENSKIH RAZMER
  ► NARAVNE NESREČE
  ► SUŠA/MOČA
  ► NAMAKANJE
  ► ŽLED (gozdarstvo)
KARTOGRAFSKI PRIKAZI
SPLETNE POVEZAVE
PROJEKTI IN PUBLIKACIJE

AGROMETEOROLOŠKA MREŽA: VREMENSKE POSTAJE IN FENOLOŠKA OPAZOVANJA

Pregled podatkov za lokacijo Kamnik, meteorološka postaja 25045

Pregled senzorjev na lokaciji

ID Ime Zadnja
vrednost
Datum
zadnje
spremembe
Tip
senzorja
377 Omočenost lista (U) 2 U 21.8.2017 02:30 A730WET
378 Padavine 0.2 mm (mm) 0 mm 21.8.2017 02:30 Generic 0.2 mm
379 Temperatura 2 m ( °C) 10,82 °C 21.8.2017 02:30 Generic -40 - +60 °C
380 Relativna vlaga 2 m (% RH) 87,79 % RH 21.8.2017 02:30 Generic 0 - 100 %

Pregled podatkov zadnjih 24 ur

Zap.
št.
Datum in čas Kamnik
Omočenost
lista
Padavine
0.2
mm
Relativna
vlaga
2
m
Temperatura
2
m
0 21.8.2017 01:30 2 0 87,79 10,82
1 21.8.2017 01:00 2 0 84,74 11,33
2 21.8.2017 00:30 1 0 86,35 11,21
3 21.8.2017 00:00 1 0 82,95 11,82
4 20.8.2017 23:30 1 0 83,42 11,97
5 20.8.2017 23:00 1 0 83,76 12,63
6 20.8.2017 22:30 1 0 81,81 13,26
7 20.8.2017 22:00 0 0 72,6 14,65
8 20.8.2017 21:30 0 0 55,29 16,92
9 20.8.2017 21:00 0 0 64,93 15,63
10 20.8.2017 20:30 0 0 56,34 17,39
11 20.8.2017 20:00 0 0 48,91 18,83
12 20.8.2017 19:30 0 0 51,97 18,73
13 20.8.2017 19:00 0 0 53,31 18,93
14 20.8.2017 18:30 0 0 42,64 20,71
15 20.8.2017 18:00 0 0 42,61 21,34
16 20.8.2017 17:30 0 0 44,13 21,59
17 20.8.2017 17:00 0 0 45,71 21,51
18 20.8.2017 16:30 0 0 43,3 22,54
19 20.8.2017 16:00 0 0 42,91 23,03
20 20.8.2017 15:30 0 0 46,62 21,95
21 20.8.2017 15:00 0 0 43,96 23,25
22 20.8.2017 14:30 0 0 50,84 22,47
23 20.8.2017 14:00 0 0 53,97 21,95
24 20.8.2017 13:30 0 0 53,72 22,61
25 20.8.2017 13:00 0 0 59,61 21,64
26 20.8.2017 12:30 0 0 61,29 21,34
27 20.8.2017 12:00 0 0 64,49 20,51
28 20.8.2017 11:30 0 0 65,76 20,88
29 20.8.2017 11:00 0 0 68,69 19,66
30 20.8.2017 10:30 0 0 70,4 18,17
31 20.8.2017 10:00 0 0 71,55 18,19
32 20.8.2017 09:30 1 0 69,5 18,51
33 20.8.2017 09:00 10 0 78,9 16,51
34 20.8.2017 08:30 10 0 87,99 14,97
35 20.8.2017 08:00 10 0 95,97 14,7
36 20.8.2017 07:30 10 0,2 99,88 14,11
37 20.8.2017 07:00 10 0 99,93 13,77
38 20.8.2017 06:30 10 0 99,93 13,16
39 20.8.2017 06:00 10 0 99,93 12,63
40 20.8.2017 05:30 10 0 99,93 12,67
41 20.8.2017 05:00 10 0 99,93 13,14
42 20.8.2017 04:30 10 0,2 99,93 13,19
43 20.8.2017 04:00 10 0,2 99,93 13,33
44 20.8.2017 03:30 10 0,2 99,93 13,36
45 20.8.2017 03:00 10 0 99,93 13,5
© 2011 Ministrstvo za kmetijstvo, gozdarstvo in prehrano. Vse pravice pridržane.